Location: Caltech
(34.1382°N, 118.1253°W)
Time: 16:41:07
(UTC-07:00)

Meteor 2-4 Rocket - Visible Passes

Search period start: 22 May 2015 00:00
Search period end: 01 June 2015 00:00
Orbit: 800 x 908 km, 81.2° (Epoch: 22 May)

Date Brightness Start Highest point End Pass type
(mag) Time Alt. Az. Time Alt. Az. Time Alt. Az.
22 May 3.8 21:02:55 10° S 21:08:47 70° E 21:14:42 10° NNE visible
22 May 6.5 22:49:25 10° W 22:52:30 14° WNW 22:55:13 10° NW visible
23 May 3.8 20:52:00 10° S 20:57:50 66° E 21:03:44 10° NNE visible
23 May 6.5 22:38:07 10° WSW 22:41:29 15° WNW 22:44:32 10° NW visible
24 May 3.9 20:41:06 10° S 20:46:54 61° E 20:52:45 10° NNE visible
24 May 6.5 22:26:50 10° WSW 22:30:28 16° WNW 22:33:48 10° NNW visible
25 May 4.0 20:30:12 10° S 20:35:57 57° E 20:41:46 10° NNE visible
25 May 6.4 22:15:36 10° WSW 22:19:28 17° WNW 22:23:03 10° NNW visible
26 May 4.0 20:19:18 10° S 20:25:01 54° E 20:30:47 10° NNE visible
26 May 6.4 22:04:24 10° WSW 22:08:28 18° WNW 22:12:16 10° NNW visible
27 May 6.4 21:53:12 10° WSW 21:57:27 19° WNW 22:01:28 10° NNW visible
28 May 6.3 21:42:02 10° WSW 21:46:27 21° WNW 21:50:39 10° NNW visible
29 May 6.3 21:30:53 10° WSW 21:35:28 22° WNW 21:39:50 10° NNW visible
30 May 6.2 21:19:45 10° SW 21:24:28 23° WNW 21:28:59 10° NNW visible
31 May 6.2 21:08:37 10° SW 21:13:28 25° WNW 21:18:08 10° NNW visible
